THOR ABLESTAR DEB, 245

Orbit data source: Space-Track

THOR ABLESTAR DEB, 245 is space debris in LEO originally from a launch on Thu, 29 Jun 1961 UTC launched from the Air Force Eastern Test Range (AFETR). Debris objects in space refer to the collection of defunct objects orbiting the Earth. Examples of debris include non-operational satellites, rocket bodies, and fragments generated from explosions, collisions, or faulty payload assembly.

Loading next visibility...
Identifier
245, 1961-015CA
Orbit
LEO
Country
Flag of USUS
Related business
Manufacturer
Unknown
Mission
Spacecraft
Bus & Motor
Unknown
Mass
Unknown
Launch date (UTC)
1961-06-29 (65 years ago)
Launch vehicle
Unknown
Launch site
Air Force Eastern Test Range (AFETR)
Object type
Payload
Rocket body
Debris
Shape & HBR
Unknown shape, 0.2 m
Radar Cross Section
Medium (>0.1 m² and <1 m²)

Expand to show TLE details & history
Last TLE update: 12 hours ago

TLE from 12 hours ago
0 THOR ABLESTAR DEB
1   245U 61015CA  26014.97477877  .00000233  00000-0  15411-3 0  9996
2   245  66.1016 213.9825 0057535 286.3834  73.0932 14.17939487306154
Epoch: 2026-01-14T23:23Z
TLE epoch observation values (Epoch: 2026-01-14T23:23:40.885Z)
Latitude
-0.00008°
Longitude
108.62705°
Altitude
822.531 km
Speed
7.448 km/s
True Right ascension
14h 15m 55s
True Declination
0° 00' 00"
Sunlit
Object was in daylight at epoch
Visualization orbit readout
Latitude
Unknown
Longitude
Unknown
Altitude
Unknown
Speed
Unknown
Apparent Right ascension
Unknown
Apparent Declination
Unknown
Sunlit
N/A
Visualization observer readout
Local Sidereal Time
11:49:34
Azimuth
Unknown
Elevation
Unknown
Doppler factor
Unknown
Orbital elements
Apogee altitude
872.261 km
Perigee altitude
789.307 km
Semi-major axis
7,208.921 km
Eccentricity
0.00575
Inclination
66.1016°
RAAN
213.9825°
Arg. of periapsis
286.3834°
True anomaly
73.72532°
Mean anomaly
73.0932°
Eccentric anomaly
73.40913°
Mean motion
3.54599 °/min
Orbital period
101.52 mins
BSTAR
0.00015411
Loading maneuver chart data...
Computing Atmospheric mass density...

Documentation

Showing up to 5 results
|